Regional Weather Roundup
Issued by NWS

Home | Current Version | Previous Version | Text Only | Print | Product List | Glossary On
Versions: 1 2 3 4 5 6 7 8 9 10 11 12 13 14 15 16 17 18 19 20 21 22 23 24 25 26 27 28 29 30 31 32 33 34 35 36 37 38 39 40 41 42 43 44 45 46 47 48 49 50
000
ASUS44 KJAN 240503
RWRMS

MISSISSIPPI HOURLY WEATHER ROUNDUP
NATIONAL WEATHER SERVICE JACKSON MS
1200 AM CDT SUN JUL 24 2016

NOTE: "FAIR: INDICATES FEW OR NO CLOUDS BELOW 12,000 FEET WITH NO
SIGNIFICANT WEATHER AND/OR OBSTRUCTIONS TO VISIBILITY.

MSZ001>002-007>008-010>013-018>021-025>028-034>036-240600-
NORTHWEST MISSISSIPPI

CITY           SKY/WX    TMP DP  RH WIND       PRES   REMARKS
CLEVELAND      FAIR      77  77 100 S5        29.94S
GREENWOOD      PTCLDY    76  72  87 W3        29.94F
GREENVILLE     PTCLDY    78  73  84 S5        29.93F
OXFORD         FAIR      75  73  94 CALM      29.99S
WINONA         FAIR      75  75  99 CALM      29.95F
$$

MSZ003>006-009-014>017-022>024-029>033-037>039-240600-
NORTHEAST MISSISSIPPI

CITY           SKY/WX    TMP DP  RH WIND       PRES   REMARKS
ABERDEEN       FAIR      75  59  57 CALM      29.97F HAZE
COLUMBUS AFB   CLEAR     77  77 100 CALM      29.96S
GOLDN TRIANGLE CLEAR     79  72  78 CALM      29.96S
TUPELO         CLOUDY    78  74  87 NE3       29.97S
$$

MSZ040-058-240600-
CENTRAL MISSISSIPPI

CITY           SKY/WX    TMP DP  RH WIND       PRES   REMARKS
JACKSON INTL   MOCLDY    76  74  93 CALM      29.97S
JACKSON HAWKNS CLOUDY    77  75  93 CALM      29.97S
MADISON        FAIR      73  72  94 CALM      29.97S
MERIDIAN KEY   CLEAR     79  75  87 CALM      29.97F
MERIDIAN NAS   CLEAR     78  73  84 CALM      29.98S
VICKSBURG VKS  PTCLDY    77  73  88 S3        29.95F
$$

MSZ059>079-240600-
SOUTH MISSISSIPPI

CITY           SKY/WX    TMP DP  RH WIND       PRES   REMARKS
BROOKHAVEN     FAIR     N/A N/A N/A CALM      30.00
COLUMBIA       FAIR      79  77  94 CALM      30.01S
HATTIESBURG    PTCLDY    81  75  82 CALM      29.99S
MCCOMB         MOCLDY    78  74  87 CALM      29.98F
NATCHEZ        CLOUDY    79  72  78 CALM      29.97S
PINE BELT      PTCLDY    79  73  83 CALM      29.99F
$$

MSZ080>082-240600-
COASTAL MISSISSIPPI

CITY           SKY/WX    TMP DP  RH WIND       PRES   REMARKS
BILOXI         PTCLDY    83  79  90 NE2       29.98S HX  94
PASCAGOULA     CLEAR     77  77 100 CALM      29.99S
GULFPORT       MOCLDY    82  77  84 CALM      29.97F HX  90
$$

LAZ007>009-015>016-023>026-240600-
NORTHEAST LOUISIANA

CITY           SKY/WX    TMP DP  RH WIND       PRES   REMARKS
BASTROP        FAIR      74  74  98 CALM      29.94F
TALLULAH/VBURG PTCLDY    77  73  87 S3        29.94F
VIDALIA        FAIR      79  76  89 CALM      29.98F
$$




USA.gov is the U.S. government's official web portal to all federal, state and local government web resources and services.